User: anonymous
Location: Unspecified
(0.0000°N, 0.0000°E)
Time: 05:33:13
(UTC+02:00)
Language:

Cosmos 1898 Rocket - Orbit

View from above orbital plane
View from above orbital plane
View from above satellite
View from above satellite

Ground track
Ground track

The orbit data is extracted from the following two-line orbital elements,

1 18586U 87098B   14203.17763825  .00000107  00000-0  45589-4 0   791
2 18586 074.0072 088.6855 0020565 033.6786 134.4291 14.36433662394997
Epoch (UTC): 22 July 2014 04:15:47
Eccentricity: 0.0020565
inclination: 74.0072°
perigee height: 755 km
apogee height: 785 km
right ascension of ascending node: 88.6855°
argument of perigee: 33.6786°
revolutions per day: 14.36433662
mean anomaly at epoch: 134.4291°
orbit number at epoch: 39499

The dashed part of the orbit path shows where the satellite is in the earth's shadow,  

DLR